STARLINK-31713, 59381

Orbit data source: Space-Track

STARLINK-31713, 59381 is a payload satellite owned by SpaceX/Seattle (US) in LEO that was launched on Tue, 02 Apr 2024 UTC via an FALCON 9 launch vehicle from the Air Force Western Test Range (AFWTR). Payload-class satellites include a variety of spacecraft equipped with specific instruments for various scientific and technological missions. These include communications satellites like Starlink; space stations such as the ISS; scientific satellites like the Hubble; Earth observation satellites from companies like Planet Labs, Umbra, and HawkEye 360; GPS; miniature CubeSats for education and research; and military/defense satellites.

Loading next visibility...
Identifier
59381, 2024-062H
Orbit
LEO
Country
Flag of USUS
Related business
Manufacturer
SpaceX/Seattle
Mission
Operational Commercial Communications
Bus & Motor
STARLINK V2M, Unknown motor
Mass
730 kg wet, ~700 kg dry
Launch date (UTC)
2024-04-02 (2 years ago)
Launch vehicle
FALCON 9
Launch site
Air Force Western Test Range (AFWTR)
Object type
Payload
Rocket body
Debris
Shape & HBR
Box + 2 Pan, 17.7 m
Radar Cross Section
33.884 m², Large (>1 m²)

Expand to show TLE details & history
Last TLE update: 2 days ago

TLE from 2 days ago
0 STARLINK-31713
1 59381U 24062H   26171.30447669  .00001271  00000-0  48750-4 0  9995
2 59381  53.1594 140.3518 0001261  85.3147 274.7999 15.34393537125328
Epoch: 2026-06-20T07:18Z
TLE epoch observation values (Epoch: 2026-06-20T07:18:26.786Z)
Latitude
-0.00004°
Longitude
122.21914°
Altitude
463.552 km
Speed
7.636 km/s
True Right ascension
09h 21m 24s
True Declination
0° 00' 00"
Sunlit
Object was in daylight at epoch
Visualization orbit readout
Latitude
Unknown
Longitude
Unknown
Altitude
Unknown
Speed
Unknown
Apparent Right ascension
Unknown
Apparent Declination
Unknown
Sunlit
N/A
Visualization observer readout
Local Sidereal Time
21:27:49
Azimuth
Unknown
Elevation
Unknown
Doppler factor
Unknown
Orbital elements
Apogee altitude
463.842 km
Perigee altitude
462.117 km
Semi-major axis
6,841.116 km
Eccentricity
0.00013
Inclination
53.1594°
RAAN
140.3518°
Arg. of periapsis
85.3147°
True anomaly
274.7855°
Mean anomaly
274.7999°
Eccentric anomaly
274.7927°
Mean motion
3.83577 °/min
Orbital period
93.85 mins
BSTAR
0.00004875
Loading maneuver chart data...
Computing Atmospheric mass density...
Loading historical data...
Loading historical data...
Loading historical data...
Loading historical data...
Loading historical data...
Loading historical data...
Loading historical data...

Documentation

Showing up to 5 results
|